| time (UTC) | temp F | wind direction | speed knots | gust knots | rain 1hr in | rain 24hr in | rain mn in | humidity % | barometer mb |
| 20260902194006 | 87 | 154 | 0.0 | 1.7 | 0.00 | 0.35 | 0.34 | 64 | 1008.2 |
| 20260902193506 | 87 | 154 | 0.9 | 2.6 | 0.00 | 0.35 | 0.34 | 65 | 1008.3 |
| 20260902193005 | 86 | 154 | 0.9 | 2.6 | 0.00 | 0.35 | 0.34 | 61 | 1008.2 |
| 20260902192006 | 87 | 154 | 0.9 | 2.6 | 0.00 | 0.35 | 0.34 | 64 | 1008.2 |
| 20260902191505 | 87 | 154 | 0.9 | 1.7 | 0.00 | 0.35 | 0.34 | 60 | 1008.2 |
| 20260902190505 | 88 | 154 | 1.7 | 2.6 | 0.00 | 0.35 | 0.34 | 60 | 1008.5 |
| 20260902190005 | 89 | 154 | 0.9 | 2.6 | 0.00 | 0.35 | 0.34 | 59 | 1008.5 |
| 20260902185505 | 89 | 154 | 0.9 | 2.6 | 0.00 | 0.35 | 0.34 | 61 | 1008.7 |
| 20260902185006 | 89 | 154 | 0.9 | 5.2 | 0.00 | 0.35 | 0.34 | 61 | 1008.9 |
| 20260902184505 | 89 | 158 | 1.7 | 5.2 | 0.00 | 0.35 | 0.34 | 60 | 1009.0 |
| 20260902184005 | 89 | 178 | 0.9 | 1.7 | 0.00 | 0.35 | 0.34 | 58 | 1009.1 |
| 20260902183506 | 89 | 178 | 0.9 | 1.7 | 0.00 | 0.35 | 0.34 | 63 | 1008.9 |
| 20260902183005 | 88 | 215 | 0.0 | 1.7 | 0.00 | 0.35 | 0.34 | 63 | 1008.7 |
| 20260902182505 | 88 | 319 | 0.0 | 1.7 | 0.00 | 0.35 | 0.34 | 62 | 1008.8 |
| 20260902181505 | 88 | 319 | 0.9 | 2.6 | 0.00 | 0.35 | 0.34 | 60 | 1008.9 |
| 20260902180505 | 87 | 163 | 0.9 | 1.7 | 0.00 | 0.35 | 0.34 | 63 | 1009.1 |
| 20260902175505 | 87 | 164 | 0.9 | 4.3 | 0.00 | 0.35 | 0.34 | 62 | 1009.2 |
| 20260902175006 | 87 | 169 | 0.9 | 4.3 | 0.00 | 0.35 | 0.34 | 63 | 1009.4 |
| 20260902173006 | 84 | 175 | 0.9 | 4.3 | 0.00 | 0.35 | 0.34 | 70 | 1009.5 |
| 20260902172505 | 84 | 163 | 0.9 | 4.3 | 0.00 | 0.35 | 0.34 | 69 | 1009.5 |
| 20260902172006 | 83 | 168 | 1.7 | 6.1 | 0.00 | 0.35 | 0.34 | 70 | 1009.7 |
| 20260902171505 | 83 | 149 | 0.9 | 4.3 | 0.00 | 0.35 | 0.34 | 71 | 1009.7 |
| 20260902170506 | 82 | 175 | 2.6 | 4.3 | 0.00 | 0.35 | 0.34 | 69 | 1009.7 |
| 20260902170006 | 82 | 173 | 2.6 | 5.2 | 0.00 | 0.35 | 0.34 | 71 | 1009.8 |
| 20260902165505 | 81 | 167 | 2.6 | 5.2 | 0.00 | 0.35 | 0.34 | 70 | 1009.7 |
| 20260902165005 | 81 | 164 | 1.7 | 5.2 | 0.00 | 0.35 | 0.34 | 71 | 1009.7 |
| 20260902164505 | 81 | 159 | 1.7 | 4.3 | 0.00 | 0.35 | 0.34 | 71 | 1009.6 |
| 20260902164006 | 81 | 171 | 1.7 | 4.3 | 0.00 | 0.35 | 0.34 | 73 | 1009.6 |
| 20260902163505 | 80 | 173 | 1.7 | 4.3 | 0.00 | 0.35 | 0.34 | 74 | 1009.5 |
| 20260902163005 | 79 | 173 | 1.7 | 4.3 | 0.00 | 0.35 | 0.34 | 75 | 1009.5 |
| 20260902162006 | 78 | 171 | 0.9 | 4.3 | 0.00 | 0.35 | 0.34 | 77 | 1009.5 |
| 20260902161006 | 77 | 160 | 1.7 | 4.3 | 0.00 | 0.35 | 0.34 | 79 | 1009.6 |
| 20260902160506 | 77 | 187 | 1.7 | 4.3 | 0.00 | 0.35 | 0.34 | 79 | 1009.6 |
| 20260902160008 | 77 | 170 | 1.7 | 4.3 | 0.00 | 0.35 | 0.34 | 79 | 1009.6 |
| 20260902155505 | 76 | 139 | 1.7 | 6.1 | 0.00 | 0.35 | 0.34 | 81 | 1009.7 |
| 20260902155005 | 75 | 171 | 1.7 | 6.1 | 0.00 | 0.35 | 0.34 | 82 | 1009.7 |
| 20260902154006 | 74 | 171 | 1.7 | 6.1 | 0.00 | 0.35 | 0.34 | 85 | 1009.5 |
| 20260902153505 | 74 | 167 | 1.7 | 5.2 | 0.00 | 0.35 | 0.34 | 88 | 1009.5 |
| 20260902153006 | 73 | 166 | 2.6 | 5.2 | 0.00 | 0.35 | 0.34 | 90 | 1009.6 |
| 20260902152506 | 72 | 169 | 2.6 | 5.2 | 0.00 | 0.35 | 0.34 | 90 | 1009.5 |
| 20260902152006 | 72 | 164 | 2.6 | 4.3 | 0.00 | 0.35 | 0.34 | 92 | 1009.5 |
| 20260902151505 | 71 | 173 | 1.7 | 5.2 | 0.00 | 0.35 | 0.34 | 92 | 1009.5 |
| 20260902151005 | 71 | 177 | 1.7 | 7.0 | 0.00 | 0.35 | 0.34 | 92 | 1009.5 |
| 20260902150505 | 70 | 171 | 2.6 | 7.0 | 0.00 | 0.35 | 0.34 | 92 | 1009.4 |
| 20260902150006 | 70 | 161 | 1.7 | 5.2 | 0.00 | 0.35 | 0.34 | 92 | 1009.5 |
| 20260902145505 | 70 | 173 | 1.7 | 5.2 | 0.00 | 0.35 | 0.34 | 93 | 1009.5 |
| 20260902144505 | 69 | 156 | 2.6 | 5.2 | 0.00 | 0.35 | 0.34 | 93 | 1009.5 |
| 20260902143505 | 68 | 163 | 0.9 | 5.2 | 0.00 | 0.35 | 0.34 | 92 | 1009.7 |
| 20260902143006 | 68 | 165 | 0.9 | 4.3 | 0.00 | 0.35 | 0.34 | 93 | 1009.7 |
| 20260902142505 | 68 | 162 | 1.7 | 4.3 | 0.00 | 0.35 | 0.34 | 92 | 1009.8 |
| 20260902141505 | 68 | 151 | 1.7 | 4.3 | 0.00 | 0.35 | 0.34 | 92 | 1009.7 |
| 20260902141005 | 68 | 113 | 0.9 | 1.7 | 0.00 | 0.35 | 0.34 | 93 | 1009.9 |
| 20260902140505 | 67 | 113 | 0.0 | 2.6 | 0.00 | 0.35 | 0.34 | 93 | 1010.0 |
| 20260902140005 | 67 | 113 | 1.7 | 5.2 | 0.00 | 0.35 | 0.34 | 93 | 1009.9 |
| 20260902135505 | 67 | 145 | 0.9 | 5.2 | 0.00 | 0.35 | 0.34 | 93 | 1009.9 |
| 20260902135006 | 67 | 161 | 0.9 | 2.6 | 0.00 | 0.35 | 0.34 | 93 | 1010.0 |
| 20260902134006 | 67 | 173 | 1.7 | 4.3 | 0.00 | 0.35 | 0.34 | 93 | 1010.1 |
| 20260902133505 | 66 | 174 | 0.9 | 2.6 | 0.00 | 0.35 | 0.34 | 93 | 1010.1 |
| 20260902133006 | 66 | 185 | 0.0 | 0.9 | 0.00 | 0.35 | 0.34 | 93 | 1009.9 |
| 20260902132505 | 66 | 185 | 0.9 | 2.6 | 0.00 | 0.35 | 0.34 | 93 | 1009.8 |
| 20260902132005 | 66 | 25 | 0.9 | 4.3 | 0.00 | 0.35 | 0.34 | 93 | 1009.7 |
| 20260902131505 | 66 | 54 | 0.9 | 4.3 | 0.00 | 0.35 | 0.34 | 93 | 1010.0 |
| 20260902131006 | 66 | 179 | 0.0 | 2.6 | 0.00 | 0.35 | 0.34 | 93 | 1010.3 |
| 20260902130505 | 65 | 39 | 0.0 | 0.9 | 0.00 | 0.35 | 0.34 | 93 | 1010.3 |
| 20260902130005 | 65 | 38 | 0.0 | 1.7 | 0.00 | 0.35 | 0.34 | 93 | 1010.2 |
| 20260902125511 | 64 | 38 | 0.0 | 0.9 | 0.00 | 0.35 | 0.34 | 93 | 1010.1 |
| 20260902125006 | 64 | 38 | 0.0 | 0.0 | 0.00 | 0.35 | 0.34 | 93 | 1010.4 |
| 20260902124505 | 64 | 38 | 0.0 | 0.0 | 0.00 | 0.35 | 0.34 | 93 | 1010.7 |
| 20260902124005 | 64 | 38 | 0.0 | 0.0 | 0.00 | 0.35 | 0.34 | 93 | 1010.5 |
| 20260902123006 | 64 | 38 | 0.0 | 0.0 | 0.00 | 0.35 | 0.34 | 93 | 1010.5 |
| 20260902122505 | 64 | 38 | 0.0 | 0.0 | 0.00 | 0.35 | 0.34 | 92 | 1010.4 |
| 20260902122005 | 64 | 38 | 0.0 | 0.0 | 0.00 | 0.35 | 0.34 | 92 | 1009.8 |
| 20260902121505 | 64 | 38 | 0.0 | 0.0 | 0.00 | 0.35 | 0.34 | 93 | 1009.7 |
| 20260902120505 | 64 | 38 | 0.0 | 0.9 | 0.00 | 0.35 | 0.34 | 93 | 1009.4 |
| 20260902120005 | 64 | 38 | 0.0 | 0.0 | 0.00 | 0.35 | 0.34 | 93 | 1009.0 |
| 20260902115505 | 64 | 38 | 0.0 | 0.0 | 0.00 | 0.35 | 0.34 | 92 | 1009.2 |
| 20260902115006 | 64 | 38 | 0.0 | 0.9 | 0.00 | 0.35 | 0.34 | 92 | 1009.3 |
| 20260902114505 | 64 | 38 | 0.0 | 0.9 | 0.00 | 0.35 | 0.34 | 92 | 1009.5 |
| 20260902113505 | 64 | 38 | 0.0 | 0.9 | 0.00 | 0.35 | 0.34 | 92 | 1009.6 |
| 20260902113005 | 64 | 38 | 0.9 | 2.6 | 0.00 | 0.35 | 0.34 | 92 | 1009.6 |
| 20260902112505 | 64 | 40 | 0.0 | 1.7 | 0.00 | 0.35 | 0.34 | 92 | 1009.6 |
| 20260902112006 | 64 | 40 | 0.9 | 2.6 | 0.00 | 0.35 | 0.34 | 92 | 1009.4 |
| 20260902111506 | 64 | 348 | 0.9 | 2.6 | 0.00 | 0.35 | 0.34 | 92 | 1009.4 |
| 20260902111006 | 64 | 339 | 0.9 | 2.6 | 0.01 | 0.35 | 0.34 | 92 | 1009.7 |
| 20260902110505 | 64 | 355 | 0.9 | 2.6 | 0.03 | 0.35 | 0.34 | 92 | 1009.9 |
| 20260902105005 | 64 | 140 | 0.0 | 0.0 | 0.03 | 0.35 | 0.34 | 92 | 1010.8 |
| 20260902104506 | 64 | 140 | 0.0 | 0.0 | 0.03 | 0.35 | 0.34 | 92 | 1011.2 |
| 20260902104006 | 64 | 140 | 0.0 | 1.7 | 0.03 | 0.35 | 0.34 | 92 | 1011.4 |
| 20260902103505 | 64 | 140 | 0.9 | 1.7 | 0.03 | 0.35 | 0.34 | 92 | 1010.7 |
| 20260902102505 | 64 | 140 | 0.9 | 2.6 | 0.03 | 0.35 | 0.34 | 92 | 1011.4 |
| 20260902102005 | 64 | 140 | 1.7 | 4.3 | 0.03 | 0.35 | 0.34 | 92 | 1011.7 |
| 20260902101505 | 64 | 162 | 3.5 | 5.2 | 0.03 | 0.35 | 0.34 | 92 | 1011.6 |
| 20260902101006 | 64 | 164 | 1.7 | 7.8 | 0.02 | 0.34 | 0.33 | 92 | 1011.3 |
| 20260902100505 | 64 | 175 | 5.2 | 7.8 | 0.00 | 0.32 | 0.31 | 92 | 1012.3 |
| 20260902100005 | 64 | 162 | 1.7 | 4.3 | 0.00 | 0.32 | 0.31 | 92 | 1010.7 |
| 20260902095506 | 63 | 171 | 0.9 | 2.6 | 0.00 | 0.32 | 0.31 | 92 | 1010.5 |
| 20260902095005 | 63 | 33 | 0.9 | 1.7 | 0.00 | 0.32 | 0.31 | 92 | 1010.5 |
| 20260902094505 | 63 | 33 | 0.0 | 1.7 | 0.00 | 0.32 | 0.31 | 92 | 1010.4 |
| 20260902094006 | 63 | 33 | 0.0 | 1.7 | 0.00 | 0.32 | 0.31 | 92 | 1010.2 |
| 20260902093505 | 63 | 33 | 0.0 | 1.7 | 0.00 | 0.32 | 0.31 | 92 | 1009.8 |
| 20260902093005 | 63 | 33 | 0.9 | 1.7 | 0.00 | 0.32 | 0.31 | 92 | 1009.4 |
| 20260902092505 | 63 | 33 | 0.0 | 0.9 | 0.00 | 0.32 | 0.31 | 92 | 1009.5 |
| 20260902092006 | 63 | 33 | 0.0 | 1.7 | 0.00 | 0.32 | 0.31 | 92 | 1009.8 |
| 20260902091007 | 64 | 7 | 0.9 | 2.6 | 0.00 | 0.32 | 0.31 | 92 | 1009.7 |
| 20260902090506 | 64 | 5 | 0.0 | 1.7 | 0.00 | 0.32 | 0.31 | 92 | 1009.8 |
| 20260902090006 | 64 | 14 | 0.0 | 1.7 | 0.00 | 0.32 | 0.31 | 92 | 1009.9 |
| 20260902085006 | 64 | 40 | 0.9 | 2.6 | 0.00 | 0.32 | 0.31 | 92 | 1009.8 |
| 20260902084507 | 64 | 163 | 0.0 | 1.7 | 0.00 | 0.32 | 0.31 | 92 | 1009.7 |
| 20260902084006 | 65 | 163 | 0.9 | 4.3 | 0.00 | 0.32 | 0.31 | 92 | 1009.8 |
| 20260902083506 | 65 | 163 | 0.0 | 0.9 | 0.00 | 0.32 | 0.31 | 92 | 1009.6 |
| 20260902083006 | 65 | 163 | 0.0 | 0.9 | 0.00 | 0.32 | 0.31 | 92 | 1009.7 |
| 20260902082506 | 65 | 163 | 0.0 | 0.9 | 0.00 | 0.32 | 0.31 | 92 | 1009.6 |
| 20260902082007 | 65 | 163 | 0.0 | 0.9 | 0.00 | 0.32 | 0.31 | 92 | 1009.9 |
| 20260902081506 | 65 | 163 | 0.0 | 1.7 | 0.00 | 0.32 | 0.31 | 92 | 1009.9 |
| 20260902081007 | 65 | 163 | 0.0 | 0.0 | 0.00 | 0.32 | 0.31 | 92 | 1010.0 |
| 20260902080506 | 65 | 163 | 0.0 | 2.6 | 0.00 | 0.32 | 0.31 | 92 | 1009.9 |
| 20260902080006 | 65 | 3 | 0.9 | 2.6 | 0.01 | 0.32 | 0.31 | 92 | 1009.7 |
| 20260902075506 | 65 | 4 | 0.9 | 5.2 | 0.02 | 0.32 | 0.31 | 92 | 1009.7 |
| 20260902075006 | 65 | 340 | 0.9 | 2.6 | 0.02 | 0.32 | 0.31 | 92 | 1009.7 |
| 20260902074507 | 65 | 72 | 2.6 | 5.2 | 0.03 | 0.32 | 0.31 | 92 | 1009.7 |
| 20260902074007 | 65 | 93 | 0.9 | 4.3 | 0.06 | 0.32 | 0.31 | 92 | 1009.9 |
| 20260902073506 | 65 | 27 | 0.9 | 2.6 | 0.21 | 0.32 | 0.31 | 92 | 1009.7 |
| 20260902072506 | 65 | 341 | 1.7 | 4.3 | 0.31 | 0.32 | 0.31 | 92 | 1010.1 |
| 20260902072007 | 66 | 70 | 0.9 | 5.2 | 0.31 | 0.32 | 0.31 | 92 | 1010.2 |
| 20260902070507 | 65 | 29 | 0.9 | 2.6 | 0.31 | 0.32 | 0.31 | 91 | 1010.3 |
| 20260902070007 | 66 | 43 | 0.9 | 4.3 | 0.30 | 0.31 | 0.30 | 91 | 1010.7 |
| 20260902065506 | 66 | 277 | 2.6 | 6.1 | 0.29 | 0.30 | 0.29 | 90 | 1012.0 |
| 20260902064506 | 67 | 286 | 1.7 | 10.4 | 0.28 | 0.29 | 0.28 | 90 | 1012.3 |
| 20260902064006 | 69 | 271 | 6.1 | 13.0 | 0.25 | 0.26 | 0.25 | 88 | 1013.0 |
| 20260902063506 | 70 | 237 | 7.0 | 22.6 | 0.10 | 0.11 | 0.10 | 87 | 1012.6 |
| 20260902063007 | 72 | 243 | 4.3 | 13.9 | 0.00 | 0.01 | 0.00 | 88 | 1010.1 |
| 20260902062507 | 72 | 243 | 1.7 | 6.1 | 0.00 | 0.01 | 0.00 | 89 | 1008.5 |
| 20260902061506 | 72 | 335 | 1.7 | 2.6 | 0.00 | 0.01 | 0.00 | 89 | 1007.9 |
| 20260902061006 | 72 | 21 | 0.9 | 2.6 | 0.00 | 0.01 | 0.00 | 90 | 1008.6 |
| 20260902060506 | 72 | 17 | 0.9 | 2.6 | 0.00 | 0.01 | 0.00 | 90 | 1008.5 |
| 20260902060006 | 72 | 17 | 0.9 | 1.7 | 0.00 | 0.01 | 0.00 | 90 | 1008.8 |
| 20260902055506 | 72 | 17 | 0.9 | 1.7 | 0.00 | 0.01 | 0.00 | 90 | 1009.1 |
| 20260902055007 | 72 | 18 | 0.0 | 0.9 | 0.00 | 0.01 | 0.00 | 90 | 1008.9 |
| 20260902054506 | 72 | 18 | 0.0 | 1.7 | 0.01 | 0.01 | 0.00 | 90 | 1008.8 |
| 20260902054007 | 72 | 18 | 0.9 | 1.7 | 0.00 | 0.01 | 0.00 | 90 | 1008.7 |
| 20260902053507 | 72 | 18 | 0.9 | 1.7 | 0.00 | 0.01 | 0.00 | 90 | 1008.6 |
| 20260902052506 | 72 | 19 | 0.9 | 2.6 | 0.00 | 0.01 | 0.00 | 89 | 1009.0 |
| 20260902052006 | 72 | 63 | 0.0 | 0.9 | 0.00 | 0.01 | 0.00 | 89 | 1009.1 |
| 20260902051506 | 72 | 63 | 0.0 | 0.0 | 0.00 | 0.01 | 0.00 | 89 | 1009.2 |
| 20260902051007 | 72 | 63 | 0.0 | 0.0 | 0.00 | 0.01 | 0.00 | 89 | 1009.0 |
| 20260902050506 | 72 | 63 | 0.9 | 1.7 | 0.00 | 0.01 | 0.00 | 89 | 1009.1 |
| 20260902050008 | 72 | 63 | 0.0 | 0.0 | 0.00 | 0.01 | 0.00 | 89 | 1009.5 |
| 20260902045006 | 73 | 63 | 0.0 | 0.9 | 0.01 | 0.01 | 0.01 | 89 | 1009.5 |
| 20260902044506 | 73 | 63 | 0.0 | 0.9 | 0.01 | 0.01 | 0.01 | 88 | 1009.3 |
| 20260902044006 | 73 | 63 | 0.0 | 0.0 | 0.00 | 0.00 | 0.00 | 88 | 1009.6 |
| 20260902043506 | 72 | 63 | 0.0 | 0.9 | 0.00 | 0.00 | 0.00 | 88 | 1009.6 |
| 20260902042506 | 73 | 63 | 0.0 | 0.0 | 0.00 | 0.00 | 0.00 | 88 | 1009.6 |
| 20260902041506 | 73 | 63 | 0.0 | 0.0 | 0.00 | 0.00 | 0.00 | 88 | 1009.4 |
| 20260902041006 | 73 | 63 | 0.0 | 0.0 | 0.00 | 0.00 | 0.00 | 88 | 1009.2 |
| 20260902040506 | 73 | 63 | 0.0 | 0.0 | 0.00 | 0.00 | 0.00 | 87 | 1009.2 |
| 20260902040006 | 73 | 63 | 0.0 | 0.0 | 0.00 | 0.00 | 0.00 | 87 | 1009.2 |
| 20260902035506 | 73 | 63 | 0.0 | 0.0 | 0.00 | 0.00 | 0.00 | 87 | 1009.2 |
| 20260902035006 | 73 | 63 | 0.0 | 1.7 | 0.00 | 0.00 | 0.00 | 87 | 1009.2 |
| 20260902034507 | 73 | 63 | 0.0 | 1.7 | 0.00 | 0.00 | 0.00 | 87 | 1009.3 |
| 20260902034007 | 73 | 63 | 0.0 | 0.9 | 0.00 | 0.00 | 0.00 | 87 | 1009.5 |
| 20260902033506 | 73 | 63 | 0.0 | 0.0 | 0.00 | 0.00 | 0.00 | 87 | 1009.7 |
| 20260902033006 | 74 | 63 | 0.0 | 0.0 | 0.00 | 0.00 | 0.00 | 86 | 1009.8 |
| 20260902032506 | 74 | 63 | 0.0 | 0.0 | 0.00 | 0.00 | 0.00 | 86 | 1009.8 |
| 20260902032006 | 74 | 63 | 0.0 | 0.0 | 0.00 | 0.00 | 0.00 | 85 | 1009.8 |
| 20260902031506 | 74 | 63 | 0.0 | 0.0 | 0.00 | 0.00 | 0.00 | 86 | 1009.7 |
| 20260902031006 | 74 | 63 | 0.0 | 0.0 | 0.00 | 0.00 | 0.00 | 85 | 1009.8 |
| 20260902030506 | 74 | 63 | 0.0 | 0.0 | 0.00 | 0.00 | 0.00 | 85 | 1009.8 |
| 20260902030006 | 74 | 63 | 0.0 | 0.0 | 0.00 | 0.00 | 0.00 | 85 | 1009.8 |
| 20260902025506 | 74 | 63 | 0.0 | 0.0 | 0.00 | 0.00 | 0.00 | 85 | 1009.9 |
| 20260902025006 | 74 | 63 | 0.0 | 0.0 | 0.00 | 0.00 | 0.00 | 85 | 1009.8 |
| 20260902024506 | 74 | 63 | 0.0 | 0.0 | 0.00 | 0.00 | 0.00 | 85 | 1009.8 |
| 20260902023506 | 74 | 63 | 0.0 | 0.0 | 0.00 | 0.00 | 0.00 | 85 | 1010.0 |
| 20260902023007 | 74 | 63 | 0.0 | 0.0 | 0.00 | 0.00 | 0.00 | 85 | 1009.9 |
| 20260902022506 | 75 | 63 | 0.0 | 0.9 | 0.00 | 0.00 | 0.00 | 84 | 1009.8 |
| 20260902022006 | 75 | 63 | 0.0 | 0.0 | 0.00 | 0.00 | 0.00 | 84 | 1009.8 |
| 20260902021506 | 75 | 63 | 0.0 | 0.0 | 0.00 | 0.00 | 0.00 | 84 | 1009.8 |
| 20260902020506 | 76 | 63 | 0.9 | 1.7 | 0.00 | 0.00 | 0.00 | 83 | 1009.9 |
| 20260902020006 | 76 | 63 | 0.0 | 0.0 | 0.00 | 0.00 | 0.00 | 83 | 1009.8 |
| 20260902015506 | 75 | 63 | 0.0 | 0.9 | 0.00 | 0.00 | 0.00 | 83 | 1009.9 |
| 20260902015006 | 76 | 63 | 0.0 | 0.0 | 0.00 | 0.00 | 0.00 | 83 | 1009.8 |
| 20260902014506 | 76 | 63 | 0.0 | 0.0 | 0.00 | 0.00 | 0.00 | 83 | 1009.7 |
| 20260902014006 | 76 | 63 | 0.0 | 0.0 | 0.00 | 0.00 | 0.00 | 82 | 1009.6 |
| 20260902013506 | 76 | 63 | 0.0 | 0.0 | 0.00 | 0.00 | 0.00 | 81 | 1009.6 |
| 20260902013006 | 76 | 63 | 0.0 | 0.0 | 0.00 | 0.00 | 0.00 | 82 | 1009.7 |
| 20260902012507 | 76 | 63 | 0.0 | 0.0 | 0.00 | 0.00 | 0.00 | 81 | 1009.7 |
| 20260902012006 | 77 | 63 | 0.0 | 0.0 | 0.00 | 0.00 | 0.00 | 81 | 1009.7 |
| 20260902010506 | 77 | 63 | 0.0 | 0.0 | 0.00 | 0.00 | 0.00 | 80 | 1009.4 |
| 20260902010006 | 77 | 63 | 0.0 | 0.0 | 0.00 | 0.00 | 0.00 | 79 | 1009.5 |
| 20260902005506 | 78 | 63 | 0.0 | 0.0 | 0.00 | 0.00 | 0.00 | 78 | 1009.7 |
| 20260902005006 | 78 | 63 | 0.0 | 0.0 | 0.00 | 0.00 | 0.00 | 78 | 1009.7 |
| 20260902004506 | 78 | 63 | 0.0 | 0.0 | 0.00 | 0.00 | 0.00 | 77 | 1009.5 |
| 20260902004006 | 78 | 63 | 0.0 | 0.0 | 0.00 | 0.00 | 0.00 | 77 | 1009.6 |
| 20260902003506 | 78 | 63 | 0.0 | 0.0 | 0.00 | 0.00 | 0.00 | 77 | 1009.6 |
| 20260902002506 | 79 | 63 | 0.0 | 0.0 | 0.00 | 0.00 | 0.00 | 76 | 1009.6 |
| 20260902002006 | 79 | 63 | 0.0 | 0.0 | 0.00 | 0.00 | 0.00 | 75 | 1009.6 |
| 20260902001506 | 79 | 163 | 0.0 | 0.0 | 0.00 | 0.00 | 0.00 | 74 | 1009.6 |
| 20260902001006 | 80 | 163 | 0.0 | 0.0 | 0.00 | 0.00 | 0.00 | 76 | 1009.7 |
| 20260902000506 | 80 | 163 | 0.0 | 0.0 | 0.00 | 0.00 | 0.00 | 75 | 1009.8 |
| 20260902000006 | 80 | 163 | 0.0 | 0.0 | 0.00 | 0.00 | 0.00 | 74 | 1009.7 |
| 20260901235506 | 80 | 163 | 0.0 | 0.0 | 0.00 | 0.00 | 0.00 | 74 | 1009.6 |
| 20260901235006 | 80 | 163 | 0.0 | 0.0 | 0.00 | 0.00 | 0.00 | 75 | 1009.6 |
| 20260901234506 | 81 | 163 | 0.0 | 0.0 | 0.00 | 0.00 | 0.00 | 75 | 1009.7 |
| 20260901234006 | 81 | 163 | 0.0 | 0.0 | 0.00 | 0.00 | 0.00 | 74 | 1009.7 |
| 20260901233506 | 81 | 163 | 0.0 | 0.0 | 0.00 | 0.00 | 0.00 | 74 | 1009.7 |
| 20260901233007 | 81 | 163 | 0.0 | 0.0 | 0.00 | 0.00 | 0.00 | 74 | 1009.7 |
| 20260901232506 | 81 | 163 | 0.0 | 0.0 | 0.00 | 0.00 | 0.00 | 73 | 1009.7 |
| 20260901232006 | 81 | 163 | 0.0 | 0.0 | 0.00 | 0.00 | 0.00 | 72 | 1009.6 |
| 20260901231506 | 82 | 163 | 0.0 | 0.0 | 0.00 | 0.00 | 0.00 | 72 | 1009.6 |
| 20260901231007 | 82 | 163 | 0.0 | 0.0 | 0.00 | 0.00 | 0.00 | 73 | 1009.5 |
| 20260901230506 | 82 | 163 | 0.0 | 0.0 | 0.00 | 0.00 | 0.00 | 71 | 1009.4 |
| 20260901230006 | 82 | 163 | 0.0 | 0.0 | 0.00 | 0.00 | 0.00 | 69 | 1009.4 |
| 20260901225506 | 82 | 163 | 0.0 | 0.0 | 0.00 | 0.00 | 0.00 | 70 | 1009.4 |
| 20260901224506 | 82 | 163 | 0.0 | 0.0 | 0.00 | 0.00 | 0.00 | 72 | 1009.3 |
| 20260901224007 | 82 | 163 | 0.0 | 0.0 | 0.00 | 0.00 | 0.00 | 71 | 1009.4 |
| 20260901223507 | 82 | 163 | 0.0 | 0.0 | 0.00 | 0.00 | 0.00 | 71 | 1009.5 |
| 20260901222505 | 82 | 163 | 0.0 | 1.7 | 0.00 | 0.00 | 0.00 | 70 | 1009.5 |
| 20260901222006 | 83 | 163 | 0.9 | 1.7 | 0.00 | 0.00 | 0.00 | 69 | 1009.5 |
| 20260901221506 | 83 | 163 | 1.7 | 4.3 | 0.00 | 0.00 | 0.00 | 67 | 1009.5 |
| 20260901220506 | 83 | 163 | 0.0 | 0.9 | 0.00 | 0.00 | 0.00 | 68 | 1009.8 |
| 20260901220006 | 84 | 163 | 0.0 | 0.0 | 0.00 | 0.00 | 0.00 | 69 | 1010.0 |
| 20260901215505 | 84 | 163 | 0.0 | 0.0 | 0.00 | 0.00 | 0.00 | 66 | 1009.8 |
| 20260901215006 | 84 | 163 | 0.0 | 0.0 | 0.00 | 0.00 | 0.00 | 66 | 1009.8 |
| 20260901214506 | 84 | 163 | 0.0 | 0.0 | 0.00 | 0.00 | 0.00 | 66 | 1009.8 |
| 20260901214006 | 84 | 163 | 0.0 | 0.9 | 0.00 | 0.00 | 0.00 | 67 | 1009.8 |
| 20260901213506 | 84 | 163 | 0.0 | 0.0 | 0.00 | 0.00 | 0.00 | 63 | 1009.6 |
| 20260901213007 | 85 | 163 | 0.0 | 0.0 | 0.00 | 0.00 | 0.00 | 64 | 1009.6 |
| 20260901212506 | 85 | 163 | 0.0 | 0.0 | 0.00 | 0.00 | 0.00 | 63 | 1009.2 |
| 20260901211006 | 85 | 163 | 0.0 | 0.9 | 0.00 | 0.00 | 0.00 | 61 | 1009.6 |
| 20260901210506 | 85 | 163 | 0.0 | 0.0 | 0.00 | 0.00 | 0.00 | 59 | 1009.6 |
| 20260901205506 | 86 | 163 | 0.0 | 0.0 | 0.00 | 0.00 | 0.00 | 58 | 1009.4 |
| 20260901205006 | 86 | 163 | 0.0 | 0.9 | 0.00 | 0.00 | 0.00 | 55 | 1009.6 |
| 20260901204007 | 86 | 163 | 0.0 | 0.0 | 0.00 | 0.00 | 0.00 | 57 | 1009.3 |
| 20260901203506 | 86 | 163 | 0.0 | 0.9 | 0.00 | 0.00 | 0.00 | 57 | 1009.4 |
| 20260901203006 | 86 | 163 | 0.9 | 1.7 | 0.00 | 0.00 | 0.00 | 51 | 1009.4 |
| 20260901202006 | 87 | 166 | 0.0 | 2.6 | 0.00 | 0.00 | 0.00 | 54 | 1010.2 |
| 20260901201506 | 87 | 166 | 0.0 | 5.2 | 0.00 | 0.00 | 0.00 | 51 | 1010.0 |
| 20260901201007 | 87 | 166 | 1.7 | 5.2 | 0.00 | 0.00 | 0.00 | 50 | 1010.3 |
| 20260901200506 | 87 | 166 | 0.9 | 4.3 | 0.00 | 0.00 | 0.00 | 50 | 1010.4 |
| 20260901200006 | 87 | 166 | 1.7 | 4.3 | 0.00 | 0.00 | 0.00 | 50 | 1010.5 |
| 20260901195506 | 87 | 166 | 1.7 | 4.3 | 0.00 | 0.00 | 0.00 | 50 | 1010.5 |
| 20260901195007 | 87 | 162 | 0.9 | 4.3 | 0.00 | 0.00 | 0.00 | 53 | 1010.5 |
| 20260901194506 | 86 | 166 | 1.7 | 4.3 | 0.00 | 0.00 | 0.00 | 53 | 1010.4 |